judi online

Jackpot

Texas Poker Multi Jackpot System

Kini Telah hadir Jackpot SUPER ROYAL FLUSH

Kini Telah hadir Jackpot 2000 (khusus table VIP keatas).

Ikutilah global jackpot yang tersedia di system kami, dengan system jackpot terbaru dan pertama di indonesia, anda dapat membeli jackpot dengan harga 100 rupiah saja dan menangkan hadiahnya hingga puluhan juta rupiah.

Jackpot bukanlah suatu keharusan untuk dibeli, namun kami memberikan suatu fitur tambahan untuk member tercinta dari www.pokerbo.me.

Terdapat tiga pilihan harga jackpot yang bisa anda beli yaitu :100,500,1000 dan 2000(khusus table VIP Keatas) rupiah.

Hadiah dari Multi jackpot system www.pokerbo.me

  1. full house x 10 harga jackpot yang anda beli.
      (contoh:anda membeli 1000 maka:1000 X10 = 10.000)
  2. four of kind x 250 harga jackpot yang anda beli
      (contoh:anda membeli 1000 maka:1000 X250 = 250.000)
  3. Straight flush x 1200
      (contoh:anda membeli 1000 maka:1000 X1200 = 1.200.000)
  4. Royal flush x 10000 harga jackpot yang anda beli
      (contoh:anda membeli 1000 maka:1000 X10000 = 10.000.000)
  5. SUPER ROYAL FLUSH x 30000 harga jackpot yang anda beli
      (contoh:anda membeli 1000 maka:1000 X30000 = 30.000.000)

Kondisi kartu

  1. full house adalah kondisi kartu dimana kartu anda dan kartu tengah dengan total 7 kartu bisa mendapatkan nilai 5 kartu dengan kombinasi 1 tris(three of kind) dan 1 pair, contoh 3 kartu 10 dan 2 kartu 5
  2. Four of kind adalah kondisi kartu dimana kartu anda dan kartu tengah dengan total 7 kartu bisa mendapatkan nilai 5 kartu dengan kombinasi 4 kartu yang sama jumlah dan 1 kartu apapun juga contoh anda mendapatkan 4 buah kartu angka 3 dan 1 kartu apapun.
  3. Staright flush adalah kondisi kartu dimana kartu anda dan kartu tengah dengan total 7 kartu bisa mendapatkan nilai 5 kartu dengan kombinasi seri / staright dengan kembang yang sama contoh : urutan kartu dari angka 5, 6, 7, 8 , 9 10 dengan kembang yg sama misalnya as hati
  4. Royal flush adalah kondisi kartu dimana kartu anda dan kartu tengah dengan total 7 kartu bisa mendapatkan nilai 5 kartu dengan kombinasi seri / staright dengan kembang yang sama tetapi kartu tersebut haruslah dimulai dari 10. contoh 10, Queen, Jack, King dan aces dengan kembang yang sama
  5. Super Royal flush adalah kondisi kartu dimana Kedua kartu anda digabung dengan 3 kartu pertama meja haruslah royal flush. contoh kartu anda 10,Queen kembang sama dan 3 kartu pertama meja adalah Jack, King dan aces dengan kembang yang sama

Demikian adalah penjelasan dari Multi Jackpot www.pokerbo.me terima kasih dan selamat bermain salam hoki dari kami

Texas Poker Jackpot Winner

TOP SUPER ROYAL FLUSH
No.TanggalNamaPriceWin
121/07 07:22AL_AID4NSuper Royal flush30,000,000
221/07 02:20YOKOKLENSuper Royal flush1,500,000
321/07 00:26RIKACELL11Super Royal flush3,000,000
421/07 00:08ANKAR2018Super Royal flush6,000,000
521/07 00:07GACIEL1988Super Royal flush15,000,000
TOP ROYAL FLUSH
No.TanggalNamaPriceWin
121/07 11:59COMBROKU07Royal flush2,000,000
221/07 11:55LB889204Royal flush5,000,000
321/07 11:50ZYREY99Royal flush10,000,000
421/07 11:41SWORDLORDORoyal flush10,000,000
521/07 10:47BASUH25Royal flush10,000,000
TOP STRAIGHT FLUSH
No.TanggalNamaPriceWin
121/07 12:20G2FY0ZRVFMStraight Flush240,000
221/07 12:20M4_OROKStraight Flush1,200,000
321/07 12:16AJIB21Straight Flush1,200,000
421/07 12:16FAKBOYLIMStraight Flush120,000
521/07 12:14SRI83Straight Flush600,000
LATEST JACKPOT
No.TanggalNamaPriceWin
121/07 12:23ATR19444Full House2,000
221/07 12:23MUL_YADI23Full House500
321/07 12:23B4134Y0Full House20,000
421/07 12:23HEX07Full House2,000
521/07 12:23HANDROIDFull House2,000
621/07 12:23AGENT88204Full House10,000
721/07 12:23ABAH118Full House1,000
821/07 12:23ABADIAAFull House5,000
921/07 12:23SOGIEL88Full House2,000
1021/07 12:23ADNALUFull House2,000
1121/07 12:22NAMA65Full House1,000
1221/07 12:22YOSEPH48Full House2,000
1321/07 12:22SJWASQO16YFull House1,000
1421/07 12:22BELLVA16Full House2,000
1521/07 12:22KW2QRZ8QFZFull House1,000
1621/07 12:22KICAU811Full House1,000
1721/07 12:22SENGZU13Full House2,000
1821/07 12:22PANJAITAFull House2,000
1921/07 12:22INO321Full House2,000
2021/07 12:22FUCK70Full House1,000
2121/07 12:22BOOBOO90Full House5,000
2221/07 12:22AHMADAQIL2Full House2,000
2321/07 12:22TIKUZ001Full House5,000
2421/07 12:22HOULENFull House20,000
2521/07 12:22SAMAK13Full House2,000
2621/07 12:22TEMPEKLAHFull House1,000
2721/07 12:22AJIMARWAFull House2,000
2821/07 12:22IMAIMAFull House10,000
2921/07 12:22MUDIRHANFull House20,000
3021/07 12:22B4W4NG12Full House1,000
3121/07 12:22ISBACK1933Full House2,000
3221/07 12:22LB887088Full House500
3321/07 12:22OEMANFull House2,000
3421/07 12:22BOBO90HANFull House1,000
3521/07 12:22SAVAGE04Full House2,000
3621/07 12:22IDNGPUVI88Full House2,000
3721/07 12:22AZISSSSS99Full House5,000
3821/07 12:22B8EJ93SKDHFull House5,000
3921/07 12:22KIKUK2017Full House1,000
4021/07 12:22JEFRIKIELFull House1,000
4121/07 12:22B40JA726Full House2,000
4221/07 12:22DAUNBAWAFull House1,000
4321/07 12:22MAULANAQUFour Of A Kind250,000
4421/07 12:22B4134Y0Full House20,000
4521/07 12:22MUFFLER011Full House2,000
4621/07 12:22E__L__TFull House2,000
4721/07 12:22PILIP99Four Of A Kind125,000
4821/07 12:22DSAKTIQQFull House2,000
4921/07 12:22BUI38Full House10,000
5021/07 12:22MAIKAL8777Full House2,000

Domino Multi Jackpot System

Ikutilah global jackpot yang tersedia di system kami, dengan system jackpot terbaru dan pertama di indonesia, anda dapat membeli jackpot dengan harga 100 rupiah saja dan menangkan hadiahnya hingga puluhan juta rupiah.

Jackpot bukanlah suatu keharusan untuk dibeli, namun kami memberikan suatu fitur tambahan untuk member tercinta dari www.pokerbo.me.

Terdapat tiga pilihan harga jackpot yang bisa anda beli yaitu :100,500 dan 1000 rupiah.

Hadiah dari Multi jackpot system www.pokerbo.me

  1. Murni Kecil x 50 harga jackpot yang anda beli.
      (contoh:anda membeli 1000 maka:1000 X 50 = 50.000)
  2. Murni Besar x 50 harga jackpot yang anda beli
      (contoh:anda membeli 1000 maka:1000 X 50 = 50.000)
  3. BALAK x 100 harga jackpot yang anda beli
      (contoh:anda membeli 1000 maka:1000 X 100 = 100.000)
  4. ENAM DEWA x 6666 harga jackpot yang anda beli
      (contoh:anda membeli 1000 maka:1000 X 6666 = 6.666.000)

Demikian adalah penjelasan dari Multi Jackpot www.pokerbo.me terima kasih dan selamat bermain salam hoki dari kami

Domino Jackpot Winner

TOP ENAM DEWA
No.TanggalNamaPriceWin
121/07 09:10GIRIAP17murni enam6,666,000
221/07 07:18LANA000murni enam666,600
321/07 01:22GARANG6666murni enam666,600
420/07 23:52BONG023murni enam6,666,000
520/07 23:19ACAIYHAHmurni enam6,666,000
TOP BALAK
No.TanggalNamaPriceWin
121/07 12:22MURAY01balak50,000
221/07 12:22HUNTER2019balak10,000
321/07 12:16INEX1315balak100,000
421/07 12:04DPTTDMUJUR2018balak50,000
521/07 12:03BRAMASTO99balak100,000
LATEST JACKPOT
No.TanggalNamaPriceWin
121/07 12:23BOOMZ889murni kecil50,000
221/07 12:22LB881007murni kecil25,000
321/07 12:22TIAR_SUSlucky9910,000
421/07 12:22MURAY01balak50,000
521/07 12:22HUNTER2019balak10,000
621/07 12:22BLUEDEVIL8murni besar50,000
721/07 12:22DOTRES01murni kecil25,000
821/07 12:22870murni besar5,000
921/07 12:21MBELINXZmurni besar50,000
1021/07 12:21AGGGUNGmurni kecil50,000
1121/07 12:20ZBV0DSGZAVmurni besar25,000
1221/07 12:20CUENDING10murni kecil50,000
1321/07 12:20G4S89murni kecil50,000
1421/07 12:19KROSDOSmurni besar25,000
1521/07 12:18GAJMUX0LC7murni besar25,000
1621/07 12:18PUJIYONO09murni besar50,000
1721/07 12:18TEHKOTAK09murni besar50,000
1821/07 12:18JRIU33murni kecil25,000
1921/07 12:18RUDIBOIMmurni besar5,000
2021/07 12:17MAGON_12murni besar50,000
2121/07 12:17GAJMUX0LC7murni besar25,000
2221/07 12:16MRBEAN109murni kecil5,000
2321/07 12:16MBELINXZmurni kecil50,000
2421/07 12:16INEX1315balak100,000
2521/07 12:16G4S89murni besar50,000
2621/07 12:15UPFRI73murni kecil25,000
2721/07 12:15INEX1315murni besar50,000
2821/07 12:14BLIZLOVE24murni besar50,000
2921/07 12:14NOVAREmurni besar25,000
3021/07 12:14BILQIS2424murni kecil50,000
3121/07 12:14JI3NK94murni kecil25,000
3221/07 12:13PENGEK46murni kecil5,000
3321/07 12:13KECAP459murni kecil50,000
3421/07 12:13RAFBIL31murni kecil50,000
3521/07 12:12HERU447murni kecil5,000
3621/07 12:12B04CE39Bmurni kecil5,000
3721/07 12:11STYLE930murni kecil50,000
3821/07 12:11ZASSYIFA14murni kecil50,000
3921/07 12:11POERBAmurni kecil50,000
4021/07 12:11YURI661murni kecil25,000
4121/07 12:10DOKORmurni besar50,000
4221/07 12:10OIM6666murni besar25,000
4321/07 12:10BABBB16murni kecil25,000
4421/07 12:10K5Kmurni besar25,000
4521/07 12:10F2172murni kecil50,000
4621/07 12:09R3N0011murni besar5,000
4721/07 12:09KING001murni besar50,000
4821/07 12:09STYLE930murni kecil50,000
4921/07 12:09FERY124murni kecil5,000
5021/07 12:08VIN703murni besar25,000

Ceme Multi Jackpot System

Jackpot dilihat dari gabungan kartu pemain dengan kartu bandar. Bandar harus membeli jackpot sebanyak jumlah player yang sedang duduk. Sebagai contoh bila terdapat 3 pemain duduk bermain, dan bandar memutuskan untuk membeli jackpot Rp 1.000, maka pada periode tersebut bandar akan membeli jackpot sebanyak 3xRp1.000 = Rp3.000.

Jackpot bukanlah suatu keharusan untuk dibeli, namun kami memberikan suatu fitur tambahan untuk member tercinta dari www.pokerbo.me.

Terdapat tiga pilihan harga jackpot yang bisa anda beli yaitu :100,500 dan 1000 rupiah.

Hadiah dari Multi jackpot system www.pokerbo.me

  1. Murni Kecil x 50 harga jackpot yang anda beli.
      (contoh:anda membeli 1000 maka:1000 X 50 = 50.000)
  2. Murni Besar x 50 harga jackpot yang anda beli
      (contoh:anda membeli 1000 maka:1000 X 50 = 50.000)
  3. BALAK x 200 harga jackpot yang anda beli
      (contoh:anda membeli 1000 maka:1000 X 200 = 200.000)
  4. ENAM DEWA x 6666 harga jackpot yang anda beli
      (contoh:anda membeli 1000 maka:1000 X 6666 = 6.666.000)

Demikian adalah penjelasan dari Multi Jackpot www.pokerbo.me terima kasih dan selamat bermain salam hoki dari kami

Ceme Jackpot Winner

TOP ENAM DEWA
No.TanggalNamaPriceWin
121/07 12:19BOBOOOY06murni enam6,666,000
221/07 12:11WOWOR878murni enam666,600
321/07 12:03PRIAMBOD00murni enam6,666,000
421/07 11:48A4DERImurni enam3,333,000
521/07 11:31JSON533murni enam6,666,000
TOP BALAK
No.TanggalNamaPriceWin
121/07 12:22RIMAJAYA45balak200,000
221/07 12:22KAMMAN17balak20,000
321/07 12:22SHOP89balak100,000
421/07 12:21FC149C6Dbalak200,000
521/07 12:21NICKYB0Ybalak200,000
LATEST JACKPOT
No.TanggalNamaPriceWin
121/07 12:23NURMAN221murni kecil50,000
221/07 12:22NOE77murni kecil50,000
321/07 12:22SINGAR93murni kecil25,000
421/07 12:22RIMAJAYA45balak200,000
521/07 12:22KAMMAN17balak20,000
621/07 12:22F271DC9Amurni besar25,000
721/07 12:22NASTITUNmurni besar50,000
821/07 12:22BAKHUL99murni kecil25,000
921/07 12:22BRIMBmurni kecil25,000
1021/07 12:22SHOP89balak100,000
1121/07 12:22POXI_DOANKmurni kecil5,000
1221/07 12:22PRJFOZmurni besar50,000
1321/07 12:21DRYCLEANmurni besar50,000
1421/07 12:21FC149C6Dbalak200,000
1521/07 12:21OMEBENKmurni kecil50,000
1621/07 12:21CRISTIANmurni kecil50,000
1721/07 12:21SAVAG33murni kecil50,000
1821/07 12:21AC3HH11murni kecil5,000
1921/07 12:21ALI779murni kecil50,000
2021/07 12:21AFKARENZAmurni kecil50,000
2121/07 12:21NICKYB0Ybalak200,000
2221/07 12:21KALAHAEmurni kecil50,000
2321/07 12:21KILERS347murni kecil50,000
2421/07 12:21RDI234murni kecil50,000
2521/07 12:21NOE77murni kecil50,000
2621/07 12:21XELMBUTmurni kecil50,000
2721/07 12:21S4POR4murni kecil50,000
2821/07 12:21LK4DBIMA1973murni kecil5,000
2921/07 12:21PENYOT48murni kecil50,000
3021/07 12:21SYFA0408murni kecil25,000
3121/07 12:21HERM4N70murni kecil5,000
3221/07 12:20MELIKmurni kecil5,000
3321/07 12:20NURMAN221balak200,000
3421/07 12:20K4D4L07murni besar50,000
3521/07 12:20BOBOOOY06murni besar50,000
3621/07 12:20ROY_1887balak200,000
3721/07 12:20KIAGENG37murni kecil50,000
3821/07 12:20IYODI68murni kecil50,000
3921/07 12:20SIGMA123murni besar25,000
4021/07 12:20IHZAM8murni besar5,000
4121/07 12:20JAYAA75murni kecil50,000
4221/07 12:20SOFYAN22murni kecil50,000
4321/07 12:20TTIOmurni besar50,000
4421/07 12:20KARIN488murni besar25,000
4521/07 12:20M40DONKmurni besar50,000
4621/07 12:19HANDI788murni kecil50,000
4721/07 12:19GOST66murni kecil50,000
4821/07 12:19BOBOOOY06murni enam6,666,000
4921/07 12:19LEOLOmurni kecil25,000
5021/07 12:19BUNDAETO90murni kecil25,000